Find STARLINK-37990

NORAD ID: 799501030 Int'l Des: 2026-146G Constellation: starlink operational

現在のビュー

3D地球を読み込み中...

About STARLINK-37990

STARLINK-37990 (NORAD 799501030) is a starlink constellation satellite launched Jun 12, 2026

STARLINK-37990について

説明を読み込み中...

次回通過

Passes for default location (London). Set your location on the main map for personalized predictions.

高度履歴

Loading altitude history...

軌道要素

1 99999C 2026146G 26176.32270832 .00754020 00000-0 116230-3 0 1766
2 99999 97.2858 21.9776 0011169 278.9378 146.0369 16.03749957 11
Epoch: Jun 25, 2026 • Age: 10 hours